Location: Hylvaty SDH
(49.9612°N, 16.4057°E)
Time: 19:12:32
(UTC+02:00)

Transit 4A - Pass Details

Date: 11 August 2020
Orbit: 862 x 982 km, 66.8° (Epoch: 28 September)

Event Time Altitude Azimuth Distance (km) Brightness Sun altitude
Rises 14:46:04 0° 307° (NW) 3,595 11.0 48.9°
Reaches altitude 10° 14:49:36 10° 327° (NNW) 2,674 10.3 48.6°
Maximum altitude 14:53:36 17° 7° (N) 2,214 9.7 48.1°
Drops below altitude 10° 14:57:39 10° 47° (NE) 2,718 10.0 47.7°
Sets 15:01:16 0° 67° (ENE) 3,678 10.6 47.2°
